Regional Weather Roundup
Issued by NWS

Home | Current Version | Previous Version | Text Only | Print | Product List | Glossary On
Versions: 1 2 3 4 5 6 7 8 9 10 11 12 13 14 15 16 17 18 19 20 21 22 23 24 25 26 27 28 29 30 31 32 33 34 35 36 37 38 39 40 41 42 43 44 45 46 47 48 49 50
646
ASUS43 KMKX 240621
RWRWI

WISCONSIN REGIONAL WEATHER ROUNDUP
NATIONAL WEATHER SERVICE MILWAUKEE/SULLIVAN WI
100 AM CDT TUE OCT 24 2017

NOTE: "FAIR" INDICATES FEW OR NO CLOUDS BELOW 12,000 FEET WITH NO
SIGNIFICANT WEATHER AND/OR OBSTRUCTIONS TO VISIBILITY.

WIZ001-002-006>008-014>016-023>028-240700-
NORTHWEST WISCONSIN

CITY           SKY/WX    TMP DP  RH WIND       PRES   REMARKS
SUPERIOR ARPT  CLOUDY    45  35  68 N6G24     29.80F
6HR MIN TEMP:  45; 6HR MAX TEMP:  49;

ASHLAND        CLOUDY    44  36  73 NW15G23   29.73F
6HR MIN TEMP:  44; 6HR MAX TEMP:  53;

HAYWARD        CLOUDY    44  34  67 N15G23    29.73F
6HR MIN TEMP:  44; 6HR MAX TEMP:  51;

SIREN          CLOUDY    44  32  63 N16G26    29.79F
6HR MIN TEMP:  44; 6HR MAX TEMP:  47;

CUMBERLAND     CLOUDY    41  32  70 N22G30    29.74F
RICE LAKE      CLOUDY    44  34  67 NW12G18   29.75F
6HR MIN TEMP:  44; 6HR MAX TEMP:  49;

CHETEK         CLOUDY    45  36  71 N8G21     29.72F
6HR MIN TEMP:  45; 6HR MAX TEMP:  50;

LADYSMITH      CLOUDY    45  38  79 NW21G29   29.70F
6HR MIN TEMP:  45; 6HR MAX TEMP:  50; 6HR PCP:  0.03;

EAU CLAIRE     CLOUDY    45  35  68 N18G29    29.71
6HR MIN TEMP:  45; 6HR MAX TEMP:  51;

MENOMONIE      CLOUDY    46  35  63 NW20G25   29.74F
6HR MIN TEMP:  46; 6HR MAX TEMP:  50;

NEW RICHMOND   CLOUDY    44  31  59 N14       29.79F
OSCEOLA        CLOUDY    45  32  60 NW15G25   29.84S
6HR MIN TEMP:  45; 6HR MAX TEMP:  49;

$$

WIZ003>005-009-010-017-018-240700-
NORTH CENTRAL WISCONSIN

CITY           SKY/WX    TMP DP  RH WIND       PRES   REMARKS
MANITOWISH WTR DRIZZLE   41  41 100 NW15G21   29.63S
6HR MIN TEMP:  41; 6HR MAX TEMP:  51; 6HR PCP:  0.07;

ARBOR VITAE    CLOUDY    43  41  94 NW20G29   29.60F
6HR MIN TEMP:  43; 6HR MAX TEMP:  52; 6HR PCP:  0.03;

WOODRUFF       CLOUDY    43  41  94 NW20G29   29.60F
6HR MIN TEMP:  43; 6HR MAX TEMP:  52; 6HR PCP:  0.03;

RHINELANDER    LGT RAIN  45  44  97 NW16G25   29.58F
6HR MIN TEMP:  45; 6HR MAX TEMP:  48; 6HR PCP:  0.18;

EAGLE RIVER    DRIZZLE   45  44  99 NW15G26   29.56F
6HR MIN TEMP:  45; 6HR MAX TEMP:  48;

LAND O LAKES   RAIN      46  44  93 NW10G20   29.59F
6HR MIN TEMP:  46; 6HR MAX TEMP:  50; 6HR PCP:  0.01;

PHILLIPS       DRIZZLE   41  40  97 NW13G20   29.65F
6HR MIN TEMP:  41; 6HR MAX TEMP:  52; 6HR PCP:  0.22;

TOMAHAWK       LGT RAIN  43  41  93 NW13G20   29.60F
6HR MIN TEMP:  43; 6HR MAX TEMP:  47;

MEDFORD        DRIZZLE   42  40  91 NW15G24   29.62S
6HR MIN TEMP:  42; 6HR MAX TEMP:  49; 6HR PCP:  0.13;

MERRILL        DRIZZLE   45  44  97 N14G21    29.59S
6HR MIN TEMP:  45; 6HR MAX TEMP:  50; 6HR PCP:  0.18;

$$

WIZ029-030-035-036-043>047-240700-
CENTRAL WISCONSIN

CITY           SKY/WX    TMP DP  RH WIND       PRES   REMARKS
WAUSAU         LGT RAIN  46  43  89 NW14G25   29.56S
6HR MIN TEMP:  46; 6HR MAX TEMP:  50; 6HR PCP:  0.13;

MOSINEE        LGT RAIN  45  45 100 NW21G30   29.58S
MARSHFIELD     LGT RAIN  46  43  89 NW14      29.60F
6HR MIN TEMP:  46; 6HR MAX TEMP:  50; 6HR PCP:  0.05;

STEVENS POINT  LGT RAIN  46  46 100 NW12G20   29.57S
6HR MIN TEMP:  46; 6HR MAX TEMP:  51; 6HR PCP:  0.11;

WAUPACA        DRIZZLE   52  49  90 NW9G16    29.53F
6HR MIN TEMP:  50; 6HR MAX TEMP:  52;

WAUTOMA        LGT RAIN N/A N/A N/A NW17G23   29.55F
WISC RAPIDS    LGT RAIN  47  32  56 NW14      29.58F
6HR MIN TEMP:  47; 6HR MAX TEMP:  51; 6HR PCP:  0.24;

CAMP DOUGLAS   LGT RAIN  46  45  97 NW16G25   29.61F
6HR MIN TEMP:  46; 6HR MAX TEMP:  51; 6HR PCP:  0.12;

$$

WIZ011>013-019>022-031-037>040-048>050-240700-
NORTHEAST WISCONSIN

CITY           SKY/WX    TMP DP  RH WIND       PRES   REMARKS
ANTIGO         CLOUDY    47  44  91 N20G28    29.54S
6HR MIN TEMP:  45; 6HR MAX TEMP:  48;

SHAWANO        CLOUDY    52  45  76 NW8       29.50F
6HR MIN TEMP:  49; 6HR MAX TEMP:  52;

OCONTO         CLOUDY    47  44  88 NW6       29.48F
6HR MIN TEMP:  46; 6HR MAX TEMP:  47;

STURGEON BAY   CLOUDY    49  46  90 NW7       29.47
6HR MIN TEMP:  48; 6HR MAX TEMP:  51;

GREEN BAY      CLOUDY    49  47  93 NW10      29.48F
6HR MIN TEMP:  48; 6HR MAX TEMP:  50;

MANITOWOC      CLOUDY    48  46  93 W6        29.48F
6HR MIN TEMP:  48; 6HR MAX TEMP:  50;

APPLETON       CLOUDY    48  43  81 NW12G17   29.49F
CLINTONVILLE   NOT AVBL
OSHKOSH        CLOUDY    50  47  89 NW13      29.50F
6HR MIN TEMP:  49; 6HR MAX TEMP:  50;

$$

WIZ032>034-041-042-053>061-240700-
SOUTHWEST WISCONSIN

CITY           SKY/WX    TMP DP  RH WIND       PRES   REMARKS
LA CROSSE      LGT RAIN  48  41  76 NW18      29.69F
6HR MIN TEMP:  48; 6HR MAX TEMP:  54; 6HR PCP: TRACE;

SPARTA         LGT RAIN  44  43  96 NW10G18   29.67F
6HR MIN TEMP:  44; 6HR MAX TEMP:  52; 6HR PCP:  0.21;

VIROQUA        CLOUDY    44  43  97 NW14G22   29.66F
6HR MIN TEMP:  44; 6HR MAX TEMP:  51; 6HR PCP:  0.05;

BOSCOBEL       LGT RAIN  49  42  77 NW10      29.67F
6HR MIN TEMP:  49; 6HR MAX TEMP:  53; 6HR PCP:  0.01;

PRAIRIE DU CHI CLOUDY    48  35  60 NW13G20   29.69F
6HR MIN TEMP:  48; 6HR MAX TEMP:  53;

PLATTEVILLE    CLOUDY    48  44  86 NW13      29.65F
6HR MIN TEMP:  46; 6HR MAX TEMP:  50;

$$

WIZ056-057-062-063-064-067-068-240700-
SOUTH CENTRAL WISCONSIN

CITY           SKY/WX    TMP DP  RH WIND       PRES   REMARKS
REEDSBURG      DRIZZLE   46  46 100 NW12      29.60F
6HR MIN TEMP:  46; 6HR MAX TEMP:  51; 6HR PCP:  0.04;

BARABOO/DELLS  LGT RAIN  46  44  93 NW16G22   29.59F
6HR MIN TEMP:  46; 6HR MAX TEMP:  50; 6HR PCP:  0.07;

LONE ROCK      LGT RAIN  47  44  90 NW15      29.63F
6HR MIN TEMP:  47; 6HR MAX TEMP:  52; 6HR PCP:  0.03;

MINERAL POINT  LGT RAIN  48  45  87 NW14G22   29.62F
MADISON        LGT RAIN  47  45  93 W12G20    29.57F
6HR MIN TEMP:  47; 6HR MAX TEMP:  56; 6HR PCP:  0.23;

MIDDLETON      CLOUDY    48  47  99 NW15G22   29.59F
6HR MIN TEMP:  48; 6HR MAX TEMP:  56; 6HR PCP:  0.15;

WATERTOWN      LGT RAIN  47  47 100 W12       29.53F
6HR MIN TEMP:  47; 6HR MAX TEMP:  51; 6HR PCP:  0.12;

MONROE         LGT RAIN  45  43  93 W12G21    29.61S
JANESVILLE     RAIN      46  46 100 W10       29.58F
$$

WIZ051-052-058>065-066-070>072-240700-
SOUTHEAST WISCONSIN

CITY           SKY/WX    TMP DP  RH WIND       PRES   REMARKS
MILWAUKEE      CLOUDY    52  47  83 W10       29.53F
6HR MIN TEMP:  51; 6HR MAX TEMP:  54;

WAUKESHA       LGT RAIN  46  45  93 W14       29.54F
MILWAUKEE/TIMM CLOUDY    50  43  76 W8        29.53S
RACINE         LGT RAIN  50  47  89 W12       29.54F
6HR MIN TEMP:  49; 6HR MAX TEMP:  52; 6HR PCP: TRACE;

BURLINGTON     LGT RAIN  48  48 100 W10G17    29.54F
6HR MIN TEMP:  48; 6HR MAX TEMP:  52;

KENOSHA        LGT RAIN  50  46  86 W14       29.54F
6HR MIN TEMP:  48; 6HR MAX TEMP:  52; 6HR PCP: TRACE;

FOND DU LAC    LGT RAIN  50  46  86 NW12      29.50F
6HR MIN TEMP:  49; 6HR MAX TEMP:  51; 6HR PCP: TRACE;

SHEBOYGAN      CLOUDY    49  47  93 W6        29.49F
6HR MIN TEMP:  47; 6HR MAX TEMP:  49; 6HR PCP: TRACE;

WEST BEND      CLOUDY    50  46  87 NW10      29.51F
JUNEAU         LGT RAIN  48  46  95 W6        29.53F
6HR MIN TEMP:  47; 6HR MAX TEMP:  50; 6HR PCP:  0.01;

$$

LSZ147-162-240700-
LAKE SUPERIOR

STATION/POSITION TIME  TEMP    WIND        PRES    WAVE
                       AIR SEA DIR/SP/G            HT/PER
                 (UTC) (F)     (DEG/KT/KT) (MB)    (FT/S)
W MID LAKE BUOY  0550   50 51              1003.1F   5/ 5
DEVILS ISLAND    0600   46     330/ 31/ 37 1006.1F
PORT WING        0532          320/ 21/ 25 1008.1F
SAXON HARBOR     0601   48     320/ 23/ 25 1005.1F
$$

LMZ867-665-643>646-240700-
LAKE MICHIGAN

STATION/POSITION TIME  TEMP    WIND        PRES    WAVE
                       AIR SEA DIR/SP/G            HT/PER
                 (UTC) (F)     (DEG/KT/KT)



USA.gov is the U.S. government's official web portal to all federal, state and local government web resources and services.